FW4027 Weather Reports


time (UTC)temp
F
wind
direction
speed
knots
gust
knots
rain 1hr
in
rain 24hr
in
rain mn
in
humidity
%
barometer
mb
20260504110321 62 0 12.2 19.1 0.00 0.02 0.02 37 1018.4
20260504100319 61 0 13.0 19.1 0.00 0.02 0.02 37 1018.6
20260504081817 60 0 13.9 23.5 0.00 0.02 0.02 38 1018.4
20260504081318 60 0 13.9 22.6 0.00 0.02 0.02 37 1018.3
20260504080817 60 0 12.2 18.2 0.00 0.02 0.02 37 1018.3
20260504080318 61 0 13.9 18.2 0.00 0.02 0.02 37 1018.3
20260504050312 57 4 16.5 24.3 0.00 0.02 0.02 44 1017.0
20260504045813 58 0 16.5 24.3 0.00 0.02 0.02 43 1016.8
20260504045312 57 0 13.9 24.3 0.00 0.02 0.02 44 1016.7
20260504044812 57 0 13.9 20.9 0.00 0.02 0.02 43 1016.7
20260504044542 57 0 13.9 24.3 0.00 0.02 0.02 43 1016.7
20260504043812 57 0 13.9 24.3 0.00 0.02 0.02 43 1016.6
20260504043312 56 0 14.8 23.5 0.00 0.02 0.02 44 1016.6
20260504042813 56 351 12.2 22.6 0.00 0.02 0.02 45 1016.4
20260504042313 56 0 13.0 20.9 0.00 0.02 0.02 45 1016.4
20260504041811 56 0 12.2 23.5 0.00 0.02 0.02 45 1016.4
20260504041537 56 0 14.8 23.5 0.00 0.02 0.02 45 1016.4
20260504040811 56 0 10.4 20.0 0.00 0.02 0.02 46 1016.3
20260504040536 56 0 14.8 20.0 0.00 0.02 0.02 46 1016.4
20260504040259 56 0 13.0 20.0 0.00 0.02 0.02 46 1016.3
20260504035312 56 0 11.3 25.2 0.00 0.02 0.02 47 1016.2
20260504034811 56 0 13.0 25.2 0.00 0.02 0.02 47 1016.3
20260504034311 56 0 14.8 22.6 0.00 0.02 0.02 47 1016.2
20260504033811 56 0 10.4 20.9 0.00 0.02 0.02 47 1016.1
20260504033533 56 0 15.6 23.5 0.00 0.02 0.02 46 1016.0
20260504032810 56 0 11.3 26.1 0.00 0.02 0.02 46 1016.0
20260504032311 56 0 14.8 26.1 0.00 0.02 0.02 46 1016.0
20260504031811 56 0 14.8 23.5 0.00 0.02 0.02 45 1015.8
20260504031310 56 0 15.6 26.1 0.00 0.02 0.02 45 1016.0
20260504030811 56 0 16.5 26.1 0.00 0.02 0.02 45 1015.8
20260504030311 56 0 16.5 22.6 0.00 0.02 0.02 45 1015.8
20260504025810 56 0 15.6 24.3 0.00 0.02 0.02 46 1015.6
20260504025311 56 0 14.8 25.2 0.00 0.02 0.02 46 1015.6
20260504024809 56 0 15.6 25.2 0.00 0.02 0.02 45 1015.7
20260504024310 56 0 16.5 23.5 0.00 0.02 0.02 46 1015.7
20260504023809 56 0 13.0 24.3 0.00 0.02 0.02 46 1015.7
20260504023309 56 4 14.8 24.3 0.00 0.02 0.02 46 1015.9
20260504022808 56 0 14.8 20.9 0.00 0.02 0.02 47 1015.8
20260504022308 56 0 12.2 20.9 0.00 0.02 0.02 46 1016.0
20260504021809 56 0 13.9 27.8 0.00 0.02 0.02 46 1015.9
20260504021310 56 0 17.4 27.8 0.00 0.02 0.02 46 1015.9
20260504020808 56 0 15.6 22.6 0.00 0.02 0.02 46 1015.9
20260504020310 56 0 13.0 22.6 0.00 0.02 0.02 47 1015.7
20260504015809 56 0 15.6 24.3 0.00 0.02 0.02 46 1015.8
20260504015308 56 0 16.5 29.5 0.00 0.02 0.02 46 1015.8
20260504014809 56 0 17.4 29.5 0.00 0.02 0.02 46 1015.7
20260504014309 56 0 14.8 30.4 0.00 0.02 0.02 45 1016.0
20260504013809 56 0 16.5 30.4 0.00 0.02 0.02 45 1016.0
20260504013308 56 0 19.1 27.8 0.00 0.02 0.02 45 1015.8
20260504012808 56 0 16.5 28.7 0.00 0.02 0.02 46 1016.0
20260504012309 56 0 17.4 28.7 0.00 0.02 0.02 45 1015.8
20260504011807 56 0 17.4 26.9 0.00 0.02 0.02 45 1015.8
20260504011307 56 0 13.9 26.1 0.00 0.02 0.02 47 1015.9
20260504011029 56 0 17.4 26.1 0.00 0.02 0.02 46 1015.8
20260504010307 56 0 17.4 25.2 0.00 0.02 0.02 48 1015.8
20260504005809 56 0 13.0 20.0 0.00 0.02 0.02 49 1015.7
20260504005307 56 0 14.8 20.9 0.00 0.02 0.02 49 1015.6
20260504004808 56 0 13.9 20.9 0.00 0.02 0.02 49 1015.7
20260504004535 56 0 13.9 20.9 0.00 0.02 0.02 49 1015.8
20260504004031 56 0 11.3 26.9 0.00 0.02 0.02 48 1015.7
20260504003307 56 0 15.6 26.9 0.00 0.02 0.02 49 1015.6
20260504003028 56 0 13.0 20.0 0.00 0.02 0.02 50 1015.5
20260504002307 56 0 14.8 20.0 0.00 0.02 0.02 50 1015.6
20260504001805 56 0 13.0 19.1 0.00 0.02 0.02 50 1015.7
20260504001306 56 0 13.0 18.2 0.00 0.02 0.02 50 1015.7
20260504000806 56 0 10.4 18.2 0.00 0.02 0.02 49 1015.7
20260504000306 56 0 11.3 18.2 0.00 0.03 0.02 49 1015.7
20260504000035 56 0 11.3 19.1 0.00 0.03 0.02 49 1015.7
20260503235307 56 0 13.9 20.9 0.00 0.03 0.02 49 1015.7
20260503235029 56 0 13.0 31.3 0.00 0.03 0.02 48 1015.6
20260503234304 56 0 17.4 31.3 0.00 0.03 0.02 47 1015.6
20260503233806 56 0 11.3 26.9 0.00 0.03 0.02 47 1015.7
20260503233305 56 0 18.2 26.9 0.00 0.03 0.02 48 1015.7
20260503232805 56 0 13.9 26.9 0.00 0.03 0.02 49 1015.4
20260503232305 56 0 16.5 26.9 0.00 0.03 0.02 49 1015.6
20260503231806 56 0 14.8 26.1 0.00 0.03 0.02 51 1015.5
20260503231304 56 0 17.4 26.1 0.00 0.03 0.02 51 1015.5
20260503230813 55 0 14.8 25.2 0.00 0.04 0.02 52 1015.5
20260503230806 55 0 16.5 25.2 0.00 0.04 0.02 51 1015.5
20260503225804 55 0 16.5 25.2 0.00 0.04 0.02 53 1015.6
20260503225305 55 0 13.9 24.3 0.00 0.04 0.02 56 1015.6
20260503224805 55 0 16.5 24.3 0.01 0.04 0.02 56 1015.5
20260503224305 55 0 13.9 24.3 0.02 0.04 0.02 56 1015.4
20260503223804 54 353 16.5 24.3 0.02 0.04 0.02 56 1015.6
20260503223303 54 0 16.5 28.7 0.02 0.04 0.02 56 1015.4
20260503222804 54 0 18.2 28.7 0.02 0.04 0.02 58 1015.7
20260503222304 54 0 10.4 16.5 0.02 0.04 0.02 59 1015.5
20260503222031 54 0 10.4 20.0 0.02 0.04 0.02 59 1015.6
20260503221315 54 0 11.3 20.0 0.02 0.04 0.02 59 1015.5
20260503220817 54 0 12.2 26.1 0.02 0.04 0.02 59 1015.6
20260503220304 53 0 14.8 26.1 0.02 0.04 0.02 58 1015.7
20260503215816 52 0 14.8 23.5 0.02 0.02 0.02 58 1015.8
20260503215304 53 0 14.8 22.6 0.02 0.02 0.02 59 1016.0
20260503214802 54 0 15.6 30.4 0.01 0.02 0.01 58 1016.1
20260503214304 55 0 17.4 30.4 0.00 0.02 0.00 56 1015.9
20260503213802 56 0 17.4 26.1 0.00 0.02 0.00 55 1015.4
20260503213304 56 0 14.8 25.2 0.00 0.02 0.00 55 1015.4
20260503212803 56 0 14.8 25.2 0.00 0.02 0.00 54 1015.2
20260503212305 57 0 13.9 26.9 0.00 0.02 0.00 53 1015.4
20260503211803 57 0 16.5 26.9 0.00 0.02 0.00 51 1015.0
20260503211302 56 0 14.8 27.8 0.00 0.02 0.00 53 1015.2
20260503210803 56 0 16.5 27.8 0.00 0.02 0.00 53 1015.0
20260503210302 56 0 13.9 23.5 0.00 0.02 0.00 53 1015.1
20260503205802 56 0 14.8 25.2 0.00 0.02 0.02 52 1015.4
20260503205303 56 0 15.6 26.9 0.00 0.02 0.02 52 1015.2
20260503204801 56 358 15.6 31.3 0.00 0.02 0.02 52 1015.2
20260503204303 56 0 21.7 31.3 0.00 0.02 0.02 51 1015.3
20260503203801 56 0 20.0 29.5 0.00 0.02 0.02 52 1015.4
20260503203532 56 0 16.5 28.7 0.00 0.02 0.02 52 1015.5
20260503202801 56 0 13.9 27.8 0.00 0.02 0.02 53 1015.3
20260503202527 55 0 14.8 27.8 0.00 0.02 0.02 55 1015.3
20260503201813 55 0 13.0 26.1 0.00 0.08 0.02 55 1015.3
20260503201301 56 0 18.2 26.1 0.00 0.09 0.02 53 1015.4
20260503200801 56 0 14.8 27.8 0.00 0.09 0.02 52 1015.2
20260503200751 56 0 18.2 30.4 0.00 0.09 0.02 52 1015.0
20260503200526 56 0 21.7 30.4 0.00 0.09 0.02 52 1015.4
20260503195300 55 0 16.5 24.3 0.00 0.09 0.02 54 1015.3
20260503194800 55 0 14.8 27.8 0.00 0.09 0.02 54 1015.1
20260503194259 56 0 18.2 30.4 0.00 0.09 0.02 53 1015.3
20260503193759 56 0 19.1 30.4 0.00 0.09 0.02 51 1015.1
20260503193259 56 0 17.4 26.9 0.00 0.09 0.02 50 1015.0
20260503192800 56 0 15.6 28.7 0.00 0.09 0.02 49 1015.0
20260503192300 56 0 19.1 28.7 0.00 0.09 0.02 50 1015.0
20260503191800 56 0 20.0 27.8 0.00 0.09 0.02 50 1014.7
20260503191300 56 0 20.0 27.8 0.00 0.09 0.02 50 1014.7
20260503190759 56 0 16.5 25.2 0.00 0.09 0.02 54 1014.7
20260503190524 56 0 14.8 22.6 0.00 0.09 0.02 54 1014.7
20260503185759 55 0 14.8 22.6 0.00 0.09 0.02 55 1014.5
20260503185258 55 0 13.9 23.5 0.00 0.09 0.02 54 1014.5
20260503184759 55 0 16.5 28.7 0.00 0.09 0.02 54 1014.4
20260503184258 55 0 18.2 28.7 0.00 0.09 0.02 53 1014.2
20260503183757 55 0 16.5 27.8 0.00 0.09 0.02 53 1014.6
20260503183258 54 0 17.4 26.1 0.00 0.09 0.02 54 1014.4
20260503182758 54 0 15.6 26.9 0.00 0.09 0.02 55 1014.5
20260503182258 54 0 20.9 26.9 0.00 0.09 0.02 57 1014.4
20260503181759 54 0 13.9 28.7 0.00 0.09 0.02 58 1014.5
20260503181257 54 0 16.5 29.5 0.00 0.09 0.02 59 1014.6
20260503180758 54 0 17.4 29.5 0.00 0.09 0.02 56 1014.6
20260503180258 56 0 20.9 29.5 0.00 0.09 0.02 53 1014.5
20260503175757 57 0 18.2 28.7 0.00 0.09 0.02 50 1014.2
20260503175257 57 0 20.0 31.3 0.00 0.09 0.02 49 1013.9
20260503174758 57 0 19.1 31.3 0.00 0.09 0.02 49 1013.8
20260503174256 56 0 16.5 29.5 0.00 0.09 0.02 49 1013.8
20260503173758 56 0 17.4 29.5 0.00 0.09 0.02 49 1013.9
20260503173521 56 0 20.0 29.5 0.00 0.09 0.02 49 1014.0
20260503172756 56 0 21.7 28.7 0.00 0.09 0.02 50 1013.8
20260503172257 56 0 16.5 24.3 0.00 0.09 0.02 51 1014.1
20260503171756 56 0 16.5 29.5 0.00 0.09 0.02 51 1013.8
20260503171256 56 1 17.4 29.5 0.00 0.09 0.02 50 1013.9
20260503170756 56 0 19.1 31.3 0.00 0.09 0.02 51 1013.8
20260503170256 56 0 18.2 31.3 0.00 0.09 0.02 52 1013.6
20260503150753 56 0 20.0 33.0 0.00 0.09 0.02 46 1013.1
20260503150253 56 0 20.9 32.2 0.00 0.09 0.02 47 1013.3
20260503140253 57 0 20.0 30.4 0.00 0.09 0.02 46 1013.1
20260503131252 54 0 14.8 31.3 0.00 0.09 0.02 54 1013.2
20260503130751 54 0 20.0 31.3 0.00 0.09 0.02 51 1013.4
20260503130516 56 0 20.9 30.4 0.00 0.09 0.02 49 1013.2